Regional Weather Roundup
Issued by NWS

Home | Current Version | Previous Version | Text Only | Print | Product List | Glossary On
Versions: 1 2 3 4 5 6 7 8 9 10 11 12 13 14 15 16 17 18 19 20 21 22 23 24 25 26 27 28 29 30 31 32 33 34 35 36 37 38 39 40 41 42 43 44 45 46 47 48 49 50
000
ASUS43 KLMK 252002
RWRKY
KENTUCKY REGIONAL WEATHER ROUNDUP
NATIONAL WEATHER SERVICE LOUISVILLE KY
400 PM EDT WED MAY 25 2016

NOTE "FAIR" INDICATES FEW OR NO CLOUDS BELOW 12,000 FEET
WITH NO SIGNIFICANT WEATHER AND/OR OBSTRUCTIONS TO VISIBILITY.

KYZ001>023-026-027-061>063-070>075-252100-
WESTERN AND SOUTH CENTRAL KENTUCKY

CITY           SKY/WX    TMP DP  RH WIND       PRES   REMARKS
PADUCAH        PTSUNNY   72  69  90 SE8       30.06F
HENDERSON      CLOUDY    72  64  78 S14       30.08S
OWENSBORO      LGT RAIN  73  68  84 S12       30.09F
HOPKINSVILLE   TSTM      68  68 100 NW13      30.15R FOG
BOWLING GREEN  LGT RAIN  72  69  90 S6        30.13F
GLASGOW        NOT AVBL
$$

KYZ024-025-028>034-038-045-046-053-252100-
NORTH CENTRAL KENTUCKY

CITY           SKY/WX    TMP DP  RH WIND       PRES   REMARKS
LOUISVILLE/SDF CLOUDY    83  64  52 SW10      30.08F
LOUISVILLE/LOU CLOUDY    81  64  56 S8        30.08F
FORT KNOX      CLOUDY    82  64  54 S12       30.08F
$$

KYZ035>037-039>044-047>052-055>060-089>105-252100-
NORTHEAST KENTUCKY

CITY           SKY/WX    TMP DP  RH WIND       PRES   REMARKS
LEXINGTON      CLOUDY    82  61  48 SW17G26   30.12F
COVINGTON      PTSUNNY   80  63  55 S9        30.09F
FRANKFORT      CLOUDY    81  61  50 SW14G20   30.09F
$$

KYZ054-064>069-076>088-106>120-252100-
SOUTHEAST KENTUCKY

CITY           SKY/WX    TMP DP  RH WIND       PRES   REMARKS
JACKSON        CLOUDY    81  58  45 VRB6      30.16F
LONDON         RAIN      71  63  75 S8        30.18S VSB 1
SOMERSET       NOT AVBL
MIDDLESBORO    NOT AVBL
MONTICELLO     CLOUDY    79  63  57 S9G21     30.17F
$$




USA.gov is the U.S. government's official web portal to all federal, state and local government web resources and services.